Flag for Germany Weather past 2 weeks in Westerstede, Lower Saxony, Germany

Now
57 °F

Partly cloudy.


Feels Like: 55 °F
Forecast: 54 / 62 °F
Wind: 12 mph from Southwest

Location: Wittmundhaven

Current Time: Jul 29, 2015 at 3:20:52 AM

Latest Report: Jul 29, 2015 at 2:20 AM


Visibility: N/A

Pressure: 29.59 "Hg

Humidity: 88%

Dew point: 54 °F

Location of WesterstedeLocation

Historic Weather in Westerstede — Graph

°F

Westerstede temperature yesterday

Maximum temperature yesterday: 63 °F (at 4:20 PM)
Minimum temperature yesterday: 55 °F (at 11:20 PM)
Average temperature yesterday: 60 °F

Past Weeks' High & Low Weather Summary

 TemperatureHumidityPressure
High81 °F (Jul 17, 2:20 PM)100% (Jul 15, 6:20 AM)30.12 "Hg (Jul 15, 6:20 AM)
Low48 °F (Jul 24, 4:20 AM)50% (Jul 20, 3:20 PM)29.39 "Hg (Jul 25, 2:20 PM)
Average62 °F80%29.84 "Hg
* Reported Jul 14 7:20 AM — Jul 29 1:20 AM, Westerstede, Weather by CustomWeather, © 2015

Note: Actual official high and low records may vary slightly from our data, if they occured in-between our weather recording intervals... More about our weather records

Advertising

Westerstede weather history for previous 24 hours

 ConditionsComfort  
Time TempWeatherWind HumidityBarometerVisibility
1:20 AM
Wed, Jul 29
57 °FPassing clouds.12 mph88%29.59 "HgN/A
12:20 AM57 °FPassing clouds.14 mph88%29.59 "HgN/A
11:20 PM
Tue, Jul 28
55 °FPassing clouds.10 mph94%29.62 "HgN/A
10:20 PM57 °FScattered clouds.10 mph82%29.62 "HgN/A
9:20 PM59 °FScattered clouds.9 mph77%29.59 "HgN/A
8:20 PM61 °FPartly sunny.13 mph72%29.59 "HgN/A
7:20 PM61 °FPartly sunny.10 mph77%29.59 "HgN/A
6:20 PM61 °FPartly sunny.13 mph83%29.59 "HgN/A
5:20 PM61 °FSprinkles. Broken clouds.23 mph83%29.59 "HgN/A
4:20 PM63 °FBroken clouds.20 mph83%29.56 "HgN/A
4:03 PM61 °FSprinkles. Partly sunny.17 mph88%29.56 "Hg3 mi
3:20 PM61 °FSprinkles. Partly sunny.7 mph88%29.53 "Hg4 mi
2:20 PM61 °FBroken clouds.10 mph94%29.53 "Hg5 mi
2:04 PM61 °FSprinkles. Broken clouds.9 mph94%29.53 "Hg4 mi
1:20 PM61 °FSprinkles. Broken clouds.10 mph88%29.53 "Hg4 mi
12:20 PM61 °FRain showers. Broken clouds.9 mph88%29.53 "Hg4 mi
11:55 AM61 °FSprinkles. Fog.13 mph88%29.53 "Hg2 mi
11:20 AM61 °FRain showers. Partly sunny.7 mph88%29.53 "Hg5 mi
10:20 AM59 °FLight rain. Fog.14 mph94%29.50 "Hg3 mi
9:20 AM59 °FLight rain. Broken clouds.9 mph94%29.50 "Hg4 mi
8:20 AM59 °FLight rain. Broken clouds.10 mph94%29.50 "Hg4 mi
7:20 AM59 °FSprinkles. Partly sunny.13 mph88%29.47 "Hg4 mi
6:20 AM59 °FSprinkles. Passing clouds.14 mph88%29.47 "Hg6 mi
5:20 AM59 °FSprinkles. Passing clouds.14 mph88%29.47 "HgN/A
4:20 AM59 °FPartly cloudy.14 mph88%29.47 "HgN/A
3:20 AM59 °FPartly cloudy.14 mph88%29.45 "HgN/A
Weather by CustomWeather, © 2015

See weather overviewHow to use our weather pages